Regional Weather Roundup
Issued by NWS

Home | Current Version | Previous Version | Graphics & Text | Print | Product List | Glossary On
Versions: 1 2 3 4 5 6 7 8 9 10 11 12 13 14 15 16 17 18 19 20 21 22 23 24 25 26 27 28 29 30 31 32 33 34 35 36 37 38 39 40 41 42 43 44 45 46 47 48 49 50
000
ASUS44 KMEG 200800
RWRTN
TENNESSEE HOURLY STATE WEATHER ROUNDUP
NATIONAL WEATHER SERVICE MEMPHIS TN
200 AM CST MON FEB 20 2017

TNZ002-004-019-021-049-052-054-088>092-200900-
WEST TENNESSEE

CITY           SKY/WX    TMP DP  RH WIND       PRES   REMARKS
MEMPHIS INTL   PTCLDY    58  49  72 CALM      30.07R
NWS MEMPHIS      N/A     55 N/A N/A MISG        N/A
JACKSON        PTCLDY    47  45  93 E3        30.08F
UNION CITY     CLEAR    N/A N/A N/A CALM      30.07S
PARIS          CLEAR     52  48  87 SE8       30.09F
$$

TNZ008-025-027-028-033-062-065-066-200900-
NORTH MIDDLE TENNESSEE

CITY           SKY/WX    TMP DP  RH WIND       PRES   REMARKS
NASHVILLE      PTCLDY    49  46  90 NE3       30.14S
CLARKSVILLE    CLOUDY    48  46  93 CALM      30.13S FOG
SMYRNA         PTCLDY    43  43 100 CALM      30.15S
CROSSVILLE     CLEAR     42  40  92 CALM      30.16F
$$

TNZ061-075-076-078-094-096-097-200900-
SOUTH MIDDLE TENNESSEE

CITY           SKY/WX    TMP DP  RH WIND       PRES   REMARKS
TULLAHOMA      CLEAR     43  43 100 CALM      30.14S
WINCHESTER     CLEAR     45  45 100 CALM      30.13S
COLUMBIA       CLEAR    N/A N/A N/A CALM      30.12R
SHELBYVILLE    CLEAR     48  48 100 E3        30.14F
$$

TNZ017-018-042-046-047-200900-
NORTHEAST TENNESSEE

CITY           SKY/WX    TMP DP  RH WIND       PRES   REMARKS
TRI CITIES     CLEAR     36  35  96 CALM      30.20F FOG
$$

TNZ012-013-036-069-073-074-200900-
CENTRAL EAST TENNESSEE

CITY           SKY/WX    TMP DP  RH WIND       PRES   REMARKS
KNOXVILLE      CLOUDY    45  41  86 CALM      30.16F
OAK RIDGE      PTCLDY    42  39  89 CALM      30.18F
GATLINBURG     CLEAR     37  36  93 CALM      30.17F
$$

TNZ083-085-099-200900-
SOUTHEAST TENNESSEE

CITY           SKY/WX    TMP DP  RH WIND       PRES   REMARKS
CHATTANOOGA    PTCLDY    47  44  90 CALM      30.15F
$$

SKY/WX REPORTED AS FAIR MEANS FEW OR NO CLOUDS BELOW
12 THOUSAND FEET.





USA.gov is the U.S. government's official web portal to all federal, state and local government web resources and services.